Time,TemperatureF,DewpointF,PressureIn,WindDirection,WindDirectionDegrees,WindSpeedMPH,WindSpeedGustMPH,Humidity,HourlyPrecipIn,Conditions,Clouds,dailyrainin,SolarRadiationWatts/m^2,SoftwareType,DateUTC
2013-03-24 00:02:00,19.0,-5.0,-100.00,West,281,10.0,16.0,34,0.00,,,0.00,0.000000,,2013-03-24 07:02:00,
2013-03-24 00:11:00,19.0,-5.0,-100.00,West,281,10.0,16.0,34,0.00,,,0.00,0.000000,,2013-03-24 07:11:00,
2013-03-24 00:12:00,17.0,-5.0,-100.00,WNW,282,7.0,17.0,37,0.00,,,0.00,0.000000,,2013-03-24 07:12:00,
2013-03-24 00:32:00,17.0,-5.0,-100.00,WNW,282,7.0,17.0,37,0.00,,,0.00,0.000000,,2013-03-24 07:32:00,
2013-03-24 00:42:00,17.0,-5.0,-100.00,WNW,282,7.0,17.0,37,0.00,,,0.00,0.000000,,2013-03-24 07:42:00,
2013-03-24 00:52:00,17.0,-5.0,-100.00,WNW,282,7.0,17.0,37,0.00,,,0.00,0.000000,,2013-03-24 07:52:00,
2013-03-24 01:02:00,17.0,-5.0,-100.00,WNW,282,7.0,17.0,37,0.00,,,0.00,0.000000,,2013-03-24 08:02:00,
2013-03-24 01:12:00,18.0,-5.0,-100.00,West,269,8.0,16.0,35,0.00,,,0.00,0.000000,,2013-03-24 08:12:00,
2013-03-24 01:32:00,18.0,-5.0,-100.00,West,269,8.0,16.0,35,0.00,,,0.00,0.000000,,2013-03-24 08:32:00,
2013-03-24 01:42:00,18.0,-5.0,-100.00,West,269,8.0,16.0,35,0.00,,,0.00,0.000000,,2013-03-24 08:42:00,
2013-03-24 01:52:00,18.0,-5.0,-100.00,West,269,8.0,16.0,35,0.00,,,0.00,0.000000,,2013-03-24 08:52:00,
2013-03-24 02:02:00,18.0,-5.0,-100.00,West,269,8.0,16.0,35,0.00,,,0.00,0.000000,,2013-03-24 09:02:00,
2013-03-24 02:12:00,18.0,-3.0,-100.00,West,261,11.0,17.0,38,0.00,,,0.00,0.000000,,2013-03-24 09:12:00,
2013-03-24 02:33:00,18.0,-3.0,-100.00,West,261,11.0,17.0,38,0.00,,,0.00,0.000000,,2013-03-24 09:33:00,
2013-03-24 02:43:00,18.0,-3.0,-100.00,West,261,11.0,17.0,38,0.00,,,0.00,0.000000,,2013-03-24 09:43:00,
2013-03-24 02:52:00,18.0,-3.0,-100.00,West,261,11.0,17.0,38,0.00,,,0.00,0.000000,,2013-03-24 09:52:00,
2013-03-24 03:02:00,18.0,-3.0,-100.00,West,261,11.0,17.0,38,0.00,,,0.00,0.000000,,2013-03-24 10:02:00,
2013-03-24 03:42:00,18.0,-2.0,-100.00,West,265,12.0,22.0,40,0.00,,,0.00,0.000000,,2013-03-24 10:42:00,
2013-03-24 03:52:00,18.0,-2.0,-100.00,West,265,12.0,22.0,40,0.00,,,0.00,0.000000,,2013-03-24 10:52:00,
2013-03-24 04:02:00,18.0,-2.0,-100.00,West,265,12.0,22.0,40,0.00,,,0.00,0.000000,,2013-03-24 11:02:00,
2013-03-24 04:11:00,18.0,-2.0,-100.00,West,265,12.0,22.0,40,0.00,,,0.00,0.000000,,2013-03-24 11:11:00,
2013-03-24 04:12:00,17.0,-1.0,-100.00,WSW,256,11.0,23.0,44,0.00,,,0.00,0.000000,,2013-03-24 11:12:00,
2013-03-24 04:33:00,17.0,-1.0,-100.00,WSW,256,11.0,23.0,44,0.00,,,0.00,0.000000,,2013-03-24 11:33:00,
2013-03-24 04:42:00,17.0,-1.0,-100.00,WSW,256,11.0,23.0,44,0.00,,,0.00,0.000000,,2013-03-24 11:42:00,
2013-03-24 04:52:00,17.0,-1.0,-100.00,WSW,256,11.0,23.0,44,0.00,,,0.00,0.000000,,2013-03-24 11:52:00,
2013-03-24 05:02:00,17.0,-1.0,-100.00,WSW,256,11.0,23.0,44,0.00,,,0.00,0.000000,,2013-03-24 12:02:00,
2013-03-24 05:12:00,17.0,0.0,-100.00,West,269,11.0,23.0,46,0.00,,,0.00,0.000000,,2013-03-24 12:12:00,
2013-03-24 05:32:00,17.0,0.0,-100.00,West,269,11.0,23.0,46,0.00,,,0.00,0.000000,,2013-03-24 12:32:00,
2013-03-24 05:42:00,17.0,0.0,-100.00,West,269,11.0,23.0,46,0.00,,,0.00,0.000000,,2013-03-24 12:42:00,
2013-03-24 05:52:00,17.0,0.0,-100.00,West,269,11.0,23.0,46,0.00,,,0.00,0.000000,,2013-03-24 12:52:00,
2013-03-24 06:02:00,17.0,0.0,-100.00,West,269,11.0,23.0,46,0.00,,,0.00,0.000000,,2013-03-24 13:02:00,
2013-03-24 06:12:00,16.0,0.0,-100.00,West,273,12.0,22.0,48,0.00,,,0.00,0.000000,,2013-03-24 13:12:00,
2013-03-24 06:43:00,16.0,0.0,-100.00,West,273,12.0,22.0,48,0.00,,,0.00,0.000000,,2013-03-24 13:43:00,
2013-03-24 06:52:00,16.0,0.0,-100.00,West,273,12.0,22.0,48,0.00,,,0.00,0.000000,,2013-03-24 13:52:00,
2013-03-24 07:02:00,16.0,0.0,-100.00,West,273,12.0,22.0,48,0.00,,,0.00,0.000000,,2013-03-24 14:02:00,
2013-03-24 07:12:00,17.0,1.0,-100.00,West,278,10.0,18.0,49,0.00,,,0.00,52.000000,,2013-03-24 14:12:00,
2013-03-24 07:33:00,17.0,1.0,-100.00,West,278,10.0,18.0,49,0.00,,,0.00,52.000000,,2013-03-24 14:33:00,
2013-03-24 07:42:00,17.0,1.0,-100.00,West,278,10.0,18.0,49,0.00,,,0.00,52.000000,,2013-03-24 14:42:00,
2013-03-24 07:52:00,17.0,1.0,-100.00,West,278,10.0,18.0,49,0.00,,,0.00,52.000000,,2013-03-24 14:52:00,
2013-03-24 08:02:00,17.0,1.0,-100.00,West,278,10.0,18.0,49,0.00,,,0.00,52.000000,,2013-03-24 15:02:00,
2013-03-24 08:12:00,20.0,3.0,-100.00,WNW,284,11.0,16.0,46,0.00,,,0.00,288.000000,,2013-03-24 15:12:00,
2013-03-24 08:43:00,20.0,3.0,-100.00,WNW,284,11.0,16.0,46,0.00,,,0.00,288.000000,,2013-03-24 15:43:00,
2013-03-24 08:53:00,20.0,3.0,-100.00,WNW,284,11.0,16.0,46,0.00,,,0.00,288.000000,,2013-03-24 15:53:00,
2013-03-24 09:02:00,20.0,3.0,-100.00,WNW,284,11.0,16.0,46,0.00,,,0.00,288.000000,,2013-03-24 16:02:00,
2013-03-24 09:12:00,21.0,4.0,-100.00,West,277,12.0,19.0,46,0.00,,,-99.99,503.000000,,2013-03-24 16:12:00,
2013-03-24 09:43:00,21.0,4.0,-100.00,West,277,12.0,19.0,46,0.00,,,-99.99,503.000000,,2013-03-24 16:43:00,
2013-03-24 09:52:00,21.0,4.0,-100.00,West,277,12.0,19.0,46,0.00,,,-99.99,503.000000,,2013-03-24 16:52:00,
2013-03-24 10:02:00,21.0,4.0,-100.00,West,277,12.0,19.0,46,0.00,,,-99.99,503.000000,,2013-03-24 17:02:00,
2013-03-24 10:12:00,24.0,8.0,-100.00,WNW,292,13.0,23.0,49,0.00,,,0.00,675.000000,,2013-03-24 17:12:00,
2013-03-24 10:33:00,24.0,8.0,-100.00,WNW,292,13.0,23.0,49,0.00,,,0.00,675.000000,,2013-03-24 17:33:00,
2013-03-24 10:43:00,24.0,8.0,-100.00,WNW,292,13.0,23.0,49,0.00,,,0.00,675.000000,,2013-03-24 17:43:00,
2013-03-24 10:53:00,24.0,8.0,-100.00,WNW,292,13.0,23.0,49,0.00,,,0.00,675.000000,,2013-03-24 17:53:00,
2013-03-24 11:02:00,24.0,8.0,-100.00,WNW,292,13.0,23.0,49,0.00,,,0.00,675.000000,,2013-03-24 18:02:00,
2013-03-24 11:33:00,26.0,8.0,-100.00,WNW,302,0.0,0.0,46,0.00,,,0.00,798.000000,,2013-03-24 18:33:00,
2013-03-24 11:43:00,26.0,8.0,-100.00,WNW,302,0.0,0.0,46,0.00,,,0.00,798.000000,,2013-03-24 18:43:00,
2013-03-24 11:52:00,26.0,8.0,-100.00,WNW,302,0.0,0.0,46,0.00,,,0.00,798.000000,,2013-03-24 18:52:00,
2013-03-24 12:02:00,26.0,8.0,-100.00,WNW,302,0.0,0.0,46,0.00,,,0.00,798.000000,,2013-03-24 19:02:00,
2013-03-24 12:11:00,26.0,8.0,-100.00,WNW,302,0.0,0.0,46,0.00,,,0.00,798.000000,,2013-03-24 19:11:00,
2013-03-24 12:12:00,28.0,7.0,-100.00,WNW,290,9.0,25.0,41,0.00,,,0.00,859.000000,,2013-03-24 19:12:00,
2013-03-24 12:32:00,28.0,7.0,-100.00,WNW,290,9.0,25.0,41,0.00,,,0.00,859.000000,,2013-03-24 19:32:00,
2013-03-24 12:43:00,28.0,7.0,-100.00,WNW,290,9.0,25.0,41,0.00,,,0.00,859.000000,,2013-03-24 19:43:00,
2013-03-24 12:53:00,28.0,7.0,-100.00,WNW,290,9.0,25.0,41,0.00,,,0.00,859.000000,,2013-03-24 19:53:00,
2013-03-24 13:02:00,28.0,7.0,-100.00,WNW,290,9.0,25.0,41,0.00,,,0.00,859.000000,,2013-03-24 20:02:00,
2013-03-24 13:43:00,31.0,8.0,-100.00,West,268,6.0,18.0,37,0.00,,,0.00,885.000000,,2013-03-24 20:43:00,
2013-03-24 13:53:00,31.0,8.0,-100.00,West,268,6.0,18.0,37,0.00,,,0.00,885.000000,,2013-03-24 20:53:00,
2013-03-24 14:02:00,31.0,8.0,-100.00,West,268,6.0,18.0,37,0.00,,,0.00,885.000000,,2013-03-24 21:02:00,
2013-03-24 14:11:00,31.0,8.0,-100.00,West,268,6.0,18.0,37,0.00,,,0.00,885.000000,,2013-03-24 21:11:00,
2013-03-24 14:12:00,32.0,8.0,-100.00,WNW,283,8.0,17.0,36,0.00,,,0.00,805.000000,,2013-03-24 21:12:00,
2013-03-24 14:33:00,32.0,8.0,-100.00,WNW,283,8.0,17.0,36,0.00,,,0.00,805.000000,,2013-03-24 21:33:00,
2013-03-24 14:43:00,32.0,8.0,-100.00,WNW,283,8.0,17.0,36,0.00,,,0.00,805.000000,,2013-03-24 21:43:00,
2013-03-24 14:53:00,32.0,8.0,-100.00,WNW,283,8.0,17.0,36,0.00,,,0.00,805.000000,,2013-03-24 21:53:00,
2013-03-24 15:02:00,32.0,8.0,-100.00,WNW,283,8.0,17.0,36,0.00,,,0.00,805.000000,,2013-03-24 22:02:00,
2013-03-24 15:33:00,31.0,5.0,-100.00,WNW,286,11.0,21.0,33,0.00,,,0.00,562.000000,,2013-03-24 22:33:00,
2013-03-24 15:43:00,31.0,5.0,-100.00,WNW,286,11.0,21.0,33,0.00,,,0.00,562.000000,,2013-03-24 22:43:00,
2013-03-24 15:52:00,31.0,5.0,-100.00,WNW,286,11.0,21.0,33,0.00,,,0.00,562.000000,,2013-03-24 22:52:00,
2013-03-24 16:02:00,31.0,5.0,-100.00,WNW,286,11.0,21.0,33,0.00,,,0.00,562.000000,,2013-03-24 23:02:00,
2013-03-24 16:11:00,31.0,5.0,-100.00,WNW,286,11.0,21.0,33,0.00,,,0.00,562.000000,,2013-03-24 23:11:00,
2013-03-24 16:12:00,32.0,1.0,-100.00,NW,304,11.0,22.0,26,0.00,,,0.00,443.000000,,2013-03-24 23:12:00,
2013-03-24 16:32:00,32.0,1.0,-100.00,NW,304,11.0,22.0,26,0.00,,,0.00,443.000000,,2013-03-24 23:32:00,
2013-03-24 16:42:00,32.0,1.0,-100.00,NW,304,11.0,22.0,26,0.00,,,0.00,443.000000,,2013-03-24 23:42:00,
2013-03-24 16:52:00,32.0,1.0,-100.00,NW,304,11.0,22.0,26,0.00,,,0.00,443.000000,,2013-03-24 23:52:00,
2013-03-24 17:02:00,32.0,1.0,-100.00,NW,304,11.0,22.0,26,0.00,,,0.00,443.000000,,2013-03-25 00:02:00,
2013-03-24 18:42:00,27.0,8.0,-100.00,SE,124,3.0,17.0,43,-99.99,,,0.00,154.000000,,2013-03-25 01:42:00,
2013-03-24 18:52:00,27.0,8.0,-100.00,SE,124,3.0,17.0,43,-99.99,,,0.00,154.000000,,2013-03-25 01:52:00,
2013-03-24 19:02:00,27.0,8.0,-100.00,SE,124,3.0,17.0,43,-99.99,,,0.00,154.000000,,2013-03-25 02:02:00,
2013-03-24 19:11:00,27.0,8.0,-100.00,SE,124,3.0,17.0,43,-99.99,,,0.00,154.000000,,2013-03-25 02:11:00,
2013-03-24 19:12:00,24.0,8.0,-100.00,ESE,109,2.0,6.0,50,0.00,,,0.00,14.000000,,2013-03-25 02:12:00,
2013-03-24 19:43:00,24.0,8.0,-100.00,ESE,109,2.0,6.0,50,0.00,,,0.00,14.000000,,2013-03-25 02:43:00,
2013-03-24 19:52:00,24.0,8.0,-100.00,ESE,109,2.0,6.0,50,0.00,,,0.00,14.000000,,2013-03-25 02:52:00,
2013-03-24 20:02:00,24.0,8.0,-100.00,ESE,109,2.0,6.0,50,0.00,,,0.00,14.000000,,2013-03-25 03:02:00,
2013-03-24 20:12:00,22.0,8.0,-100.00,North,4,0.0,5.0,54,0.00,,,0.00,0.000000,,2013-03-25 03:12:00,
2013-03-24 20:34:00,22.0,8.0,-100.00,North,4,0.0,5.0,54,0.00,,,0.00,0.000000,,2013-03-25 03:34:00,
2013-03-24 20:43:00,22.0,8.0,-100.00,North,4,0.0,5.0,54,0.00,,,0.00,0.000000,,2013-03-25 03:43:00,
2013-03-24 20:53:00,22.0,8.0,-100.00,North,4,0.0,5.0,54,0.00,,,0.00,0.000000,,2013-03-25 03:53:00,
2013-03-24 21:02:00,22.0,8.0,-100.00,North,4,0.0,5.0,54,0.00,,,0.00,0.000000,,2013-03-25 04:02:00,
2013-03-24 21:12:00,21.0,9.0,-100.00,South,179,0.0,3.0,58,0.00,,,0.00,0.000000,,2013-03-25 04:12:00,
2013-03-24 21:43:00,21.0,9.0,-100.00,South,179,0.0,3.0,58,0.00,,,0.00,0.000000,,2013-03-25 04:43:00,
2013-03-24 21:52:00,21.0,9.0,-100.00,South,179,0.0,3.0,58,0.00,,,0.00,0.000000,,2013-03-25 04:52:00,
2013-03-24 22:02:00,21.0,9.0,-100.00,South,179,0.0,3.0,58,0.00,,,0.00,0.000000,,2013-03-25 05:02:00,
2013-03-24 22:12:00,26.0,6.0,-100.00,WSW,255,5.0,10.0,42,0.00,,,0.00,0.000000,,2013-03-25 05:12:00,
2013-03-24 22:33:00,26.0,6.0,-100.00,WSW,255,5.0,10.0,42,0.00,,,0.00,0.000000,,2013-03-25 05:33:00,
2013-03-24 22:42:00,26.0,6.0,-100.00,WSW,255,5.0,10.0,42,0.00,,,0.00,0.000000,,2013-03-25 05:42:00,
2013-03-24 22:52:00,26.0,6.0,-100.00,WSW,255,5.0,10.0,42,0.00,,,0.00,0.000000,,2013-03-25 05:52:00,
2013-03-24 23:02:00,26.0,6.0,-100.00,WSW,255,5.0,10.0,42,0.00,,,0.00,0.000000,,2013-03-25 06:02:00,
2013-03-24 23:12:00,27.0,6.0,-100.00,WSW,254,6.0,9.0,41,0.00,,,0.00,0.000000,,2013-03-25 06:12:00,
2013-03-24 23:33:00,27.0,6.0,-100.00,WSW,254,6.0,9.0,41,0.00,,,0.00,0.000000,,2013-03-25 06:33:00,
2013-03-24 23:42:00,27.0,6.0,-100.00,WSW,254,6.0,9.0,41,0.00,,,0.00,0.000000,,2013-03-25 06:42:00,
2013-03-24 23:52:00,27.0,6.0,-100.00,WSW,254,6.0,9.0,41,0.00,,,0.00,0.000000,,2013-03-25 06:52:00,